Nome, AK

12:09 AM AKDT on May 26, 2017 (GMT -0800)
Nome

Weather History for PAOM - April, 2014

Change the Weather History Date:

Wednesday, April 9, 2014

  Actual Average Record
Temperature  
Mean Temperature 7 °F 17 °F  
Max Temperature 16 °F 24 °F 52 °F (1940)
Min Temperature -2 °F 9 °F -24 °F (1920)
Degree Days  
Heating Degree Days 58 48  
Month to date heating degree days 449 452  
Since 1 July heating degree days 10222 11427  
Cooling Degree Days 0 0  
Month to date cooling degree days 0 0  
Year to date cooling degree days 0 0  
Moisture  
Dew Point 4 °F    
Average Humidity 0    
Maximum Humidity 0    
Minimum Humidity 0    
Precipitation  
Precipitation T in 0.02 in 0.29 in (1998)
Month to date precipitation T 0.20  
Year to date precipitation 2.70 2.72  
Snow  
Snow T in 0.30 in 2.90 in (1998)
Month to date snowfall T 2.5  
Since 1 July snowfall 66.6 68.1  
Snow Depth 6.00 in    
Sea Level Pressure  
Sea Level Pressure 30.00 in    
Wind  
Wind Speed 4 mph (East)    
Max Wind Speed 7 mph    
Max Gust Speed 10 mph    
Visibility 9 miles    
Events Snow    
T = Trace of Precipitation, MM = Missing Value Source: NWS Daily Summary

Daily Weather History Graph

Daily Weather History Graph

Search for Another Location

Airport or City:

Trip Planner

Search our weather history database for the weather conditions in past years. The results will help you decide how hot, cold, wet, or windy it might be!

Date:

Astronomy

Apr. 09, 2014 Rise Set
Actual Time 7:49 AM AKDT 10:19 PM AKDT
Civil Twilight 6:55 AM AKDT 11:13 PM AKDT
Nautical Twilight 5:41 AM AKDT 12:28 AM AKDT
Astronomical Twilight 3:35 AM AKDT 2:30 AM AKDT
Moon 3:37 PM AKDT (4/9) 6:32 AM AKDT (4/9)
Length of Visible Light 16h 17m
Length of Day
14h 30m
Waxing Gibbous, 73% of the Moon is Illuminated
Apr 9
Waxing Gibbous
Apr 14
Full
Apr 21
Last Quarter
Apr 28
New
May 6
First Quarter

Hourly Weather History & Observations

Time (AKDT) Temp. Windchill Dew Point Humidity Pressure Visibility Wind Dir Wind Speed Gust Speed Precip Events Conditions
12:53 AM 6.1 °F - 1.9 °F 83% 29.94 in 10.0 mi Calm Calm - N/A   Scattered Clouds
1:51 AM 5.0 °F - 1.4 °F 85% 29.95 in 7.0 mi Calm Calm - 0.00 in Snow Light Snow
1:53 AM 5.0 °F - 1.9 °F 87% 29.95 in 7.0 mi Calm Calm - 0.00 in Snow Light Snow
2:51 AM 5.0 °F - 1.4 °F 85% 29.96 in 5.0 mi Calm Calm - 0.00 in Snow Light Snow
2:53 AM 5.0 °F - 3.0 °F 92% 29.97 in 5.0 mi Calm Calm - 0.00 in Snow Light Snow
3:53 AM 5.0 °F - 1.9 °F 87% 29.97 in 9.0 mi Calm Calm - 0.00 in   Overcast
4:53 AM 1.9 °F -5.6 °F -0.0 °F 91% 29.98 in 10.0 mi NNE 3.5 mph - 0.00 in   Mostly Cloudy
5:11 AM -0.0 °F - -2.9 °F 88% 29.98 in 10.0 mi Calm Calm - N/A   Scattered Clouds
5:53 AM -0.0 °F -7.9 °F -2.9 °F 88% 29.99 in 10.0 mi NNE 3.5 mph - N/A   Scattered Clouds
6:53 AM -0.9 °F - -4.0 °F 87% 29.99 in 10.0 mi Calm Calm - N/A   Scattered Clouds
7:53 AM -2.0 °F -10.1 °F -5.1 °F 87% 29.99 in 10.0 mi NNE 3.5 mph - N/A   Scattered Clouds
8:53 AM 1.0 °F -6.7 °F -2.0 °F 87% 30.00 in 7.0 mi NNE 3.5 mph - N/A   Scattered Clouds
9:53 AM 3.9 °F - 1.0 °F 88% 30.00 in 7.0 mi Calm Calm - 0.00 in   Scattered Clouds
10:53 AM 10.0 °F 3.6 °F 7.0 °F 87% 30.01 in 7.0 mi East 3.5 mph - 0.00 in   Scattered Clouds
11:53 AM 10.9 °F 1.4 °F 9.0 °F 92% 30.02 in 7.0 mi East 5.8 mph - N/A   Scattered Clouds
12:53 PM 12.9 °F 3.8 °F 9.0 °F 84% 30.04 in 7.0 mi East 5.8 mph - N/A   Scattered Clouds
1:53 PM 14.0 °F 6.5 °F 10.0 °F 84% 30.04 in 10.0 mi East 4.6 mph - N/A   Scattered Clouds
2:53 PM 14.0 °F 5.1 °F 10.0 °F 84% 30.06 in 10.0 mi SSE 5.8 mph - N/A   Scattered Clouds
3:53 PM 14.0 °F 6.5 °F 9.0 °F 80% 30.05 in 10.0 mi South 4.6 mph - N/A   Scattered Clouds
4:53 PM 15.1 °F 6.4 °F 10.0 °F 80% 30.04 in 10.0 mi South 5.8 mph - N/A   Mostly Cloudy
4:58 PM 15.1 °F 9.4 °F 9.0 °F 77% 30.04 in 10.0 mi SSE 3.5 mph - N/A   Mostly Cloudy
5:53 PM 15.1 °F 7.7 °F 9.0 °F 77% 30.04 in 10.0 mi SSE 4.6 mph - N/A   Mostly Cloudy
6:53 PM 15.1 °F 6.4 °F 10.0 °F 80% 30.04 in 10.0 mi SSE 5.8 mph - N/A   Mostly Cloudy
7:53 PM 15.1 °F 6.4 °F 8.1 °F 74% 30.02 in 10.0 mi ESE 5.8 mph - N/A   Mostly Cloudy
8:53 PM 14.0 °F 5.1 °F 8.1 °F 77% 30.01 in 10.0 mi East 5.8 mph - N/A   Mostly Cloudy
9:53 PM 12.9 °F 5.2 °F 7.0 °F 77% 30.01 in 10.0 mi East 4.6 mph - N/A   Mostly Cloudy
10:53 PM 12.0 °F 2.7 °F 6.1 °F 77% 30.01 in 10.0 mi ENE 5.8 mph - N/A   Mostly Cloudy
11:53 PM 7.0 °F -1.7 °F 1.9 °F 80% 30.01 in 10.0 mi NNE 4.6 mph - N/A   Mostly Cloudy